Location: Campillo
(40.8621°N, 4.2488°W)
Time: 12:32:40
(UTC+00:00)

Cosmos 1933 - Pass Details

Date: 11 May 2021
Orbit: 547 x 563 km, 82.5° (Epoch: 13 June)

Event Time Altitude Azimuth Distance (km) Brightness Sun altitude
Rises 20:06:12 0° 171° (S) 2,724 6.5 -7.8°
Reaches altitude 10° 20:08:25 10° 164° (SSE) 1,832 5.5 -8.2°
Maximum altitude 20:12:15 43° 93° (E) 783 3.7 -8.8°
Drops below altitude 10° 20:16:05 10° 21° (NNE) 1,837 6.2 -9.4°
Sets 20:18:19 0° 15° (NNE) 2,733 7.1 -9.8°
